COSMOS 1375 DEB, 18477

Orbit data source: Space-Track

COSMOS 1375 DEB, 18477 is space debris in LEO originally from a launch on Sun, 06 Jun 1982 UTC launched from the Plesetsk Missile And Space Complex (PKMTR). Debris objects in space refer to the collection of defunct objects orbiting the Earth. Examples of debris include non-operational satellites, rocket bodies, and fragments generated from explosions, collisions, or faulty payload assembly.

Loading next visibility...
Identifier
18477, 1982-055BF
Orbit
LEO
Country
Flag of CISCIS
Related business
Manufacturer
Unknown
Mission
Spacecraft
Bus & Motor
Unknown
Mass
Unknown
Launch date (UTC)
1982-06-06 (44 years ago)
Launch vehicle
Unknown
Launch site
Plesetsk Missile And Space Complex (PKMTR)
Object type
Payload
Rocket body
Debris
Shape & HBR
Unknown shape, 0.1 m
Radar Cross Section
Small (<0.1 m²)

Expand to show TLE details & history
Last TLE update: 2 days ago

TLE from 2 days ago
0 COSMOS 1375 DEB
1 18477U 82055BF  26171.19622034  .00005382  00000-0  13942-2 0  9990
2 18477  65.8137 199.1942 0023143 307.9566  51.9444 14.50426410 78686
Epoch: 2026-06-20T04:42Z
TLE epoch observation values (Epoch: 2026-06-20T04:42:33.437Z)
Latitude
0.00002°
Longitude
-139.85943°
Altitude
716.203 km
Speed
7.503 km/s
True Right ascension
13h 16m 46s
True Declination
0° 00' 00"
Sunlit
Object was in daylight at epoch
Visualization orbit readout
Latitude
Unknown
Longitude
Unknown
Altitude
Unknown
Speed
Unknown
Apparent Right ascension
Unknown
Apparent Declination
Unknown
Sunlit
N/A
Visualization observer readout
Local Sidereal Time
00:39:52
Azimuth
Unknown
Elevation
Unknown
Doppler factor
Unknown
Orbital elements
Apogee altitude
739.155 km
Perigee altitude
706.288 km
Semi-major axis
7,100.859 km
Eccentricity
0.00231
Inclination
65.8137°
RAAN
199.1942°
Arg. of periapsis
307.9566°
True anomaly
52.15359°
Mean anomaly
51.9444°
Eccentric anomaly
52.04896°
Mean motion
3.62724 °/min
Orbital period
99.25 mins
BSTAR
0.0013942
Loading maneuver chart data...
Computing Atmospheric mass density...
Loading historical data...
Loading historical data...
Loading historical data...
Loading historical data...
Loading historical data...
Loading historical data...
Loading historical data...

Documentation

Showing up to 5 results
|